Regional Weather Roundup
Issued by NWS Cleveland, OH

Home | Current Version | Previous Version | Graphics & Text | Print | Product List | Glossary On
Versions: 1 2 3 4 5 6 7 8 9 10 11 12 13 14 15 16 17 18 19 20 21 22 23 24 25 26 27 28 29 30 31 32 33 34 35 36 37 38 39 40 41 42 43 44 45 46 47 48 49 50
000
ASUS41 KCLE 220512
RWRCLE
OHIO REGIONAL WEATHER ROUNDUP
NATIONAL WEATHER SERVICE WILMINGTON, OH
100 AM EDT TUE AUG 22 2017

NOTE: "FAIR" INDICATES FEW OR NO CLOUDS BELOW 12,000 FEET WITH NO
SIGNIFICANT WEATHER AND/OR OBSTRUCTIONS TO VISIBILITY.

OHZ001>008-015>018-024>027-034-035-043-044-220600-
   NORTHWEST OHIO

CITY           SKY/WX    TMP DP  RH WIND       PRES   REMARKS
DEFIANCE       FAIR      73  68  84 S7        29.98F
FINDLAY        FAIR      74  69  85 S7        30.00F
TOLEDO EXPRESS FAIR      75  70  84 SW8       29.98F
TOLEDO EXEC    MOCLDY    75  70  84 SW8       29.99F
LIMA           FAIR      74  71  91 S8        30.02F
$$

OHZ009>014-019>023-028>033-038-089-220600-
   NORTHEAST OHIO

CITY           SKY/WX    TMP DP  RH WIND       PRES   REMARKS
CLE-HOPKINS    FAIR      80  69  69 S12       30.03F
CLE-LAKEFRONT  FAIR      80  68  66 S10       30.00F
CUY CO. ARPT   NOT AVBL
LORAIN-ELYRIA  FAIR      73  65  75 S7        30.03S
ASHTABULA      FAIR      76  72  87 S10       30.04S
AKRON-CANTON   MOCLDY    77  69  76 S8        30.06F
WOOSTER        FAIR      74  69  85 SW7       30.06F
MANSFIELD      FAIR      76  68  76 S9        30.07R
YOUNGSTOWN     MOCLDY    75  70  84 S6        30.07S
$$

OHZ042-051>053-060>062-070>072-077>081-220600-
  SOUTHWEST OHIO

CITY           SKY/WX    TMP DP  RH WIND       PRES   REMARKS
CINC-COVINGTON CLOUDY    75  71  87 S8        30.06F
CINC-LUNKEN    FAIR      75  73  93 CALM      30.06F
HAMILTON       FAIR      74  72  93 CALM      30.06F
DAYTON         MOCLDY    77  67  71 S8        30.06F
WRIGHT-PAT AFB MOCLDY    76  70  83 S7        30.05F
DAYTON GENERAL FAIR      74  68  81 S7        30.06F
WILMINGTON     FAIR      73  71  93 S6        30.07F
$$

OHZ036-037-039>041-045>050-054>059-063>069-073>076-082>088-220600-
  CENTRAL AND SOUTHEAST OHIO

CITY           SKY/WX    TMP DP  RH WIND       PRES   REMARKS
COLUMBUS       MOCLDY    78  70  76 S5        30.06S
OSU AIRPORT    FAIR      78  70  76 S7        30.06F
BOLTON FIELD   FAIR      75  70  84 S7        30.06F
RICKENBACK AFB FAIR      74  70  87 S6        30.06F
NEWARK         FAIR      73  70  90 CALM      30.07S
MARION         FAIR      74  68  81 S9        30.05F
LANCASTER      FAIR      76  69  79 SE3       30.08F
ZANESVILLE     FAIR      74  68  81 S3        30.08F
NEW PHILLY     FAIR      73  71  93 SE5       30.07F
$$




USA.gov is the U.S. government's official web portal to all federal, state and local government web resources and services.